Regional Weather Roundup
Issued by NWS

Home | Current Version | Previous Version | Text Only | Print | Product List | Glossary Off
Versions: 1 2 3 4 5 6 7 8 9 10 11 12 13 14 15 16 17 18 19 20 21 22 23 24 25 26 27 28 29 30 31 32 33 34 35 36 37 38 39 40 41 42 43 44 45 46 47 48 49 50

000
ASUS43 KMKX 012110
RWRWI

WISCONSIN REGIONAL WEATHER ROUNDUP
NATIONAL WEATHER SERVICE MILWAUKEE/SULLIVAN WI
400 PM CDT WED APR 01 2015

NOTE: "FAIR" INDICATES FEW OR NO CLOUDS BELOW 12,000 FEET WITH NO
SIGNIFICANT WEATHER AND/OR OBSTRUCTIONS TO VISIBILITY.

WIZ001-002-006>008-014>016-023>028-012200-
NORTHWEST WISCONSIN

CITY           SKY/WX    TMP DP  RH WIND       PRES   REMARKS
SUPERIOR ARPT  LGT RAIN  35  33  92 E12G18    29.56F WCI  27
ASHLAND        CLOUDY    63  36  36 S13G20    29.57F
HAYWARD        LGT RAIN  58  41  53 SE6       29.57F
SIREN          CLOUDY    68  40  35 S20G26    29.50F
CUMBERLAND     CLOUDY    63  36  36 SE9       29.57F THUNDER
RICE LAKE      CLOUDY    66  35  32 SE9       29.59F
CHETEK         CLOUDY    69  38  31 S7G18     29.60F
LADYSMITH      CLOUDY    64  37  36 SE8       29.66F
EAU CLAIRE     PTSUNNY   79  35  20 SW25G41   29.60F
MENOMONIE      PTSUNNY   79  33  19 S25G38    29.59F
NEW RICHMOND   CLOUDY    77  35  21 S26G44    29.53F
OSCEOLA        CLOUDY    77  37  24 S23G36    29.53F
$$

WIZ003>005-009-010-017-018-012200-
NORTH CENTRAL WISCONSIN

CITY           SKY/WX    TMP DP  RH WIND       PRES   REMARKS
MANITOWISH WTR CLOUDY    55  34  45 S8G16     29.69R
ARBOR VITAE    CLOUDY    58  34  40 S16G22    29.69S
WOODRUFF       CLOUDY    58  34  40 S16G22    29.69S
RHINELANDER    MOSUNNY   59  34  39 S17G28    29.72F
EAGLE RIVER    PTSUNNY   55  29  37 S8G21     29.70F
LAND O LAKES   CLOUDY    55  30  38 S10G17    29.70F
PHILLIPS       LGT RAIN  59  39  46 S14G22    29.67S
TOMAHAWK       MOSUNNY   60  34  37 S5        29.71F
MEDFORD        PTSUNNY   63  39  41 SE10      29.69F
MERRILL        MOSUNNY   63  37  38 S9G20     29.71F
$$

WIZ029-030-035-036-043>047-012200-
CENTRAL WISCONSIN

CITY           SKY/WX    TMP DP  RH WIND       PRES   REMARKS
WAUSAU         SUNNY     66  35  31 S17G28    29.71F
MOSINEE        SUNNY     66  36  32 S23       29.74F
MARSHFIELD     MOSUNNY   74  35  24 S22G29    29.69F
STEVENS POINT  MOSUNNY   69  35  28 S18G31    29.74F
WAUPACA        SUNNY     72  34  25 SE16G22   29.77F
WAUTOMA        MOSUNNY   73  36  26 S17G26    29.76F
WISC RAPIDS    MOSUNNY   75  31  19 S18G31    29.73F
CAMP DOUGLAS   PTSUNNY   77  36  22 S15G31    29.70F
$$

WIZ011>013-019>022-031-037>040-048>050-012200-
NORTHEAST WISCONSIN

CITY           SKY/WX    TMP DP  RH WIND       PRES   REMARKS
ANTIGO         MOSUNNY   56  38  52 S15G24    29.76F
SHAWANO        SUNNY     63  37  37 S14       29.79F
OCONTO         MOSUNNY   52  34  49 SE14      29.82F
STURGEON BAY   MOSUNNY   46  34  61 S21G26    29.88F
GREEN BAY      SUNNY     56  39  53 SE22G30   29.82F
MANITOWOC      SUNNY     44  38  79 S15       29.88F
APPLETON       MOSUNNY   61  36  39 SE18G25   29.82F
CLINTONVILLE   SUNNY     63  36  36 SE18      29.78F
OSHKOSH        MOSUNNY   64  39  39 SE17      29.80F
$$

WIZ032>034-041-042-053>061-012200-
SOUTHWEST WISCONSIN

CITY           SKY/WX    TMP DP  RH WIND       PRES   REMARKS
LA CROSSE      SUNNY     82  33  17 S30G41    29.65F HX  80
SPARTA         SUNNY     79  28  15 S23G32    29.69F
VIROQUA        SUNNY     76  34  22 S26G35    29.72F
BOSCOBEL       SUNNY     81  34  18 S20G31    29.72F
PRAIRIE DU CHI SUNNY     79  28  15 S21G31    29.71F
PLATTEVILLE    SUNNY     77  35  21 S26       29.78F
$$

WIZ056-057-062-063-064-067-068-012200-
SOUTH CENTRAL WISCONSIN

CITY           SKY/WX    TMP DP  RH WIND       PRES   REMARKS
REEDSBURG      SUNNY     75  38  26 S25G33    29.75F
BARABOO/DELLS  SUNNY     74  32  21 S20G31    29.75F
LONE ROCK      SUNNY     78  34  20 SW21G30   29.74F
MINERAL POINT  SUNNY     77  28  16 S24G32    29.77F
MADISON        PTSUNNY   74  36  25 S21G30    29.80F
MIDDLETON      SUNNY     77  30  17 S22G28    29.79F
WATERTOWN      MOSUNNY   73  39  29 S18G25    29.81F
MONROE         SUNNY     75  36  23 S26       29.82F
JANESVILLE     SUNNY     77  34  20 S20G25    29.84F
$$

WIZ051-052-058>065-066-070>072-012200-
SOUTHEAST WISCONSIN

CITY           SKY/WX    TMP DP  RH WIND       PRES   REMARKS
MILWAUKEE      PTSUNNY   55  36  48 SE15      29.90F
WAUKESHA       PTSUNNY   64  39  39 SE12G21   29.88F
MILWAUKEE/TIMM SUNNY     57  34  41 SE10      29.90F
RACINE         SUNNY     54  36  50 S16       29.92F
BURLINGTON     SUNNY     73  36  25 S17       29.87F
KENOSHA        SUNNY     65  40  39 SE14      29.90F
FOND DU LAC    MOSUNNY   65  39  38 SE18      29.82F
SHEBOYGAN      SUNNY     50  36  58 S17G23    29.88F
WEST BEND      MOSUNNY   57  34  41 SE13      29.86F
JUNEAU         MOSUNNY   71  38  30 S23G30    29.83F
$$

LSZ147-162-012200-
LAKE SUPERIOR

STATION/POSITION TIME  TEMP    WIND        PRES    WAVE
                       AIR SEA DIR/SP/G            HT/PER
                 (UTC) (F)     (DEG/KT/KT) (MB)    (FT/S)
DEVILS ISLAND    2100   38      60/ 13/ 15 1002.1F
PORT WING        2100   34      50/ 13/ 20 1001.7
SAXON HARBOR     2022   61     200/  6/ 19 1003.0R
$$

LMZ867-665-643>646-012200-
LAKE MICHIGAN

STATION/POSITION TIME  TEMP    WIND        PRES    WAVE
                       AIR SEA DIR/SP/G            HT/PER
                 (UTC) (F)     (DEG/KT/KT) (MB)    (FT/S)
NORTHPORT PIER   2004   34     140/ 12/ 13 1013.2F
KEWAUNEE LAKESHO 2000   37     170/  7/  9 1012.9F
SHEBOYGAN LAKESH 2100   37     170/ 12/ 14 1012.9F
PORT WASHINGTON  2100   43     180/  7/ 16 1012.9
MILWAUKEE LAKESH 2000   39     150/  4/  6   N/A
KENOSHA   LAKESH 2100   44     180/  7/  9 1012.9F
$$

TC  - TEMPERATURE IN CELSIUS
VSB - VISIBILITY IN STATUTE MILES
WCI - WIND CHILL INDEX
HX  - HEAT INDEX



USA.gov is the U.S. government's official web portal to all federal, state and local government web resources and services.